CW9436 Weather Reports


time (UTC)temp
C
wind
direction
speed
KPH
gust
KPH
rain 1hr
cm
rain 24hr
cm
rain mn
cm
humidity
%
barometer
mb
20260503022021 11 360 11.3 19.3 0.00 0.03 0.00 97 1009.3
20260503021541 11 2 6.4 22.5 0.00 0.03 0.00 96 1009.4
20260503021022 11 345 9.7 22.5 0.00 0.03 0.00 96 1009.5
20260503020524 11 358 9.7 20.9 0.00 0.03 0.00 96 1009.6
20260503020045 11 355 11.3 17.7 0.00 0.03 0.00 96 1009.7
20260503015523 11 350 8.0 16.1 0.00 0.03 0.00 97 1009.8
20260503015021 11 351 8.0 17.7 0.00 0.03 0.00 97 1009.9
20260503014539 11 352 6.4 17.7 0.00 0.03 0.00 97 1010.0
20260503014021 11 348 9.7 17.7 0.00 0.03 0.00 97 1010.1
20260503013522 11 350 6.4 16.1 0.00 0.03 0.00 97 1010.0
20260503013038 11 352 6.4 16.1 0.00 0.03 0.00 96 1010.1
20260503012525 11 4 6.4 11.3 0.00 0.03 0.00 96 1010.1
20260503012024 11 10 3.2 11.3 0.00 0.03 0.00 96 1010.1
20260503011534 11 10 4.8 11.3 0.00 0.03 0.00 96 1010.2
20260503011025 11 12 4.8 12.9 0.00 0.03 0.00 96 1010.2
20260503010522 11 12 4.8 12.9 0.00 0.03 0.00 96 1010.3
20260503010041 11 14 6.4 12.9 0.00 0.03 0.00 96 1010.3
20260503005523 11 27 4.8 9.7 0.00 0.03 0.00 96 1010.4
20260503005022 11 27 4.8 8.0 0.00 0.03 0.00 96 1010.4
20260503004541 11 28 3.2 11.3 0.00 0.03 0.00 96 1010.5
20260503004021 11 28 3.2 11.3 0.00 0.03 0.00 96 1010.6
20260503003518 11 28 4.8 11.3 0.00 0.03 0.00 96 1010.6
20260503003044 11 37 3.2 8.0 0.00 0.03 0.00 96 1010.7
20260503002522 11 37 3.2 8.0 0.00 0.03 0.00 96 1010.8
20260503002022 11 37 1.6 8.0 0.00 0.03 0.00 96 1010.8
20260503001534 11 37 3.2 8.0 0.00 0.03 0.00 96 1010.9
20260503001022 11 38 1.6 6.4 0.00 0.03 0.00 96 1011.0
20260503000521 11 38 1.6 8.0 0.00 0.03 0.00 96 1011.0
20260503000038 11 38 3.2 8.0 0.00 0.03 0.00 96 1011.0
20260502235520 11 38 3.2 8.0 0.00 0.03 0.00 96 1011.0
20260502235020 11 38 3.2 8.0 0.00 0.03 0.00 96 1011.0
20260502234601 11 38 3.2 8.0 0.00 0.03 0.00 96 1011.1
20260502234022 11 39 3.2 8.0 0.00 0.03 0.00 96 1011.1
20260502233521 11 39 3.2 8.0 0.00 0.03 0.00 96 1011.2
20260502233041 11 39 1.6 8.0 0.00 0.03 0.00 96 1011.1
20260502232522 11 39 3.2 8.0 0.00 0.03 0.00 96 1011.2
20260502232025 11 39 3.2 8.0 0.00 0.03 0.00 96 1011.3
20260502231545 11 39 1.6 8.0 0.00 0.03 0.00 95 1011.2
20260502231022 11 39 1.6 6.4 0.00 0.03 0.00 95 1011.4
20260502230522 11 39 1.6 6.4 0.00 0.03 0.00 95 1011.3
20260502230050 11 39 0.0 4.8 0.00 0.03 0.00 95 1011.3
20260502225521 11 0 1.6 4.8 0.00 0.03 0.03 95 1011.4
20260502225021 11 39 1.6 6.4 0.00 0.03 0.03 95 1011.4
20260502224541 11 39 1.6 6.4 0.00 0.03 0.03 95 1011.4
20260502224023 11 39 1.6 4.8 0.00 0.03 0.03 95 1011.4
20260502223522 11 39 1.6 6.4 0.00 0.03 0.03 95 1011.4
20260502223053 11 0 1.6 8.0 0.00 0.03 0.03 95 1011.4
20260502222521 11 39 0.0 8.0 0.00 0.03 0.03 95 1011.5
20260502222022 11 39 3.2 8.0 0.00 0.03 0.03 95 1011.5
20260502221536 11 39 3.2 8.0 0.00 0.03 0.03 95 1011.5
20260502221022 11 0 1.6 6.4 0.00 0.03 0.03 94 1011.5
20260502220523 11 0 1.6 6.4 0.00 0.03 0.03 94 1011.5
20260502220035 11 39 3.2 6.4 0.00 0.03 0.03 94 1011.5
20260502215522 11 39 3.2 6.4 0.00 0.03 0.03 94 1011.5
20260502215022 11 39 1.6 6.4 0.00 0.03 0.03 94 1011.5
20260502214546 11 40 3.2 9.7 0.00 0.03 0.03 94 1011.5
20260502214224 11 40 4.8 9.7 0.00 0.03 0.03 94 1011.5
20260502213521 11 41 3.2 11.3 0.00 0.03 0.03 93 1011.5
20260502213046 12 42 3.2 11.3 0.00 0.03 0.03 93 1011.5
20260502212521 12 58 1.6 8.0 0.00 0.03 0.03 93 1011.6
20260502212019 12 58 3.2 8.0 0.00 0.03 0.03 93 1011.7
20260502211539 12 0 0.0 6.4 0.00 0.03 0.03 93 1011.7
20260502211021 12 59 1.6 6.4 0.00 0.03 0.03 93 1011.7
20260502210526 12 59 1.6 6.4 0.00 0.03 0.03 93 1011.9
20260502210035 12 59 1.6 8.0 0.00 0.03 0.03 93 1011.9
20260502205521 12 0 1.6 8.0 0.00 0.03 0.03 92 1012.0
20260502205023 12 0 0.0 6.4 0.00 0.03 0.03 92 1012.0
20260502204541 12 0 0.0 6.4 0.00 0.03 0.03 92 1012.0
20260502204023 12 0 1.6 4.8 0.00 0.03 0.03 92 1012.1
20260502203522 12 0 0.0 4.8 0.00 0.03 0.03 91 1012.1
20260502203049 12 60 1.6 4.8 0.00 0.03 0.03 91 1012.2
20260502202523 12 60 1.6 4.8 0.00 0.03 0.03 91 1012.3
20260502202021 12 60 1.6 4.8 0.00 0.03 0.03 90 1012.3
20260502201542 12 0 0.0 4.8 0.00 0.03 0.03 90 1012.3
20260502201026 12 0 0.0 4.8 0.00 0.03 0.03 89 1012.3
20260502200518 12 60 0.0 1.6 0.00 0.03 0.03 89 1012.5
20260502200038 13 0 0.0 1.6 0.00 0.03 0.03 88 1012.4
20260502195522 13 0 0.0 3.2 0.00 0.03 0.03 88 1012.4
20260502195021 13 0 0.0 4.8 0.00 0.03 0.03 88 1012.5
20260502194536 13 0 0.0 4.8 0.00 0.03 0.03 87 1012.5
20260502194023 13 0 0.0 3.2 0.00 0.03 0.03 86 1012.5
20260502193527 13 0 0.0 1.6 0.00 0.03 0.03 86 1012.5
20260502193055 13 0 0.0 4.8 0.00 0.03 0.03 85 1012.6
20260502192523 13 0 0.0 4.8 0.00 0.03 0.03 85 1012.4
20260502192022 13 60 0.0 4.8 0.00 0.03 0.03 84 1012.5
20260502191541 14 60 1.6 4.8 0.00 0.03 0.03 84 1012.4
20260502191022 14 60 1.6 4.8 0.00 0.03 0.03 83 1012.4
20260502190522 14 0 0.0 4.8 0.00 0.00 0.00 82 1012.5
20260502190044 14 60 0.0 6.4 0.00 0.00 0.00 81 1012.5
20260502185522 15 60 3.2 6.4 0.00 0.00 0.00 80 1012.4
20260502185022 15 60 0.0 4.8 0.00 0.00 0.00 79 1012.4
20260502184544 15 0 1.6 4.8 0.00 0.00 0.00 78 1012.4
20260502184022 15 60 1.6 6.4 0.00 0.00 0.00 77 1012.3
20260502183523 15 60 1.6 11.3 0.00 0.00 0.00 76 1012.2
20260502183035 15 60 1.6 11.3 0.00 0.00 0.00 75 1012.2
20260502182522 15 63 3.2 6.4 0.00 0.00 0.00 74 1012.2
20260502182022 16 91 3.2 9.7 0.00 0.00 0.00 72 1012.2
20260502181544 16 91 4.8 9.7 0.00 0.00 0.00 70 1012.1
20260502181022 16 0 0.0 3.2 0.00 0.00 0.00 67 1012.3
20260502180522 16 97 0.0 3.2 0.00 0.00 0.00 67 1012.2
20260502164022 17 116 3.2 11.3 0.00 0.03 0.00 62 1012.7
20260502163522 17 126 4.8 11.3 0.00 0.03 0.00 62 1012.8
20260502163035 17 180 3.2 9.7 0.00 0.03 0.00 62 1012.7
20260502162524 17 116 3.2 9.7 0.00 0.03 0.00 61 1012.7
20260502162022 17 106 3.2 9.7 0.00 0.03 0.00 63 1012.7
20260502161536 17 106 1.6 9.7 0.00 0.03 0.00 62 1012.8
20260502161021 18 106 3.2 9.7 0.00 0.03 0.00 63 1012.9
20260502160521 18 114 3.2 9.7 0.00 0.03 0.00 62 1012.9
20260502152021 18 162 3.2 9.7 0.00 0.05 0.00 59 1013.5
20260502151547 18 126 1.6 11.3 0.00 0.05 0.00 58 1013.5
20260502151021 18 109 0.0 12.9 0.00 0.05 0.00 58 1013.5
20260502150522 18 112 4.8 12.9 0.00 0.05 0.00 60 1013.5
20260502130523 19 167 3.2 11.3 0.00 0.03 0.00 61 1014.8
20260502123521 18 83 4.8 16.1 0.00 0.03 0.00 60 1015.1
20260502123042 18 80 3.2 16.1 0.00 0.03 0.00 62 1015.2
20260502122522 18 81 4.8 16.1 0.00 0.03 0.00 66 1015.4
20260502122025 18 99 4.8 14.5 0.00 0.03 0.00 67 1015.3
20260502121541 18 105 1.6 14.5 0.00 0.03 0.00 66 1015.4
20260502121021 17 105 3.2 14.5 0.00 0.03 0.00 65 1015.4
20260502120522 17 104 4.8 14.5 0.00 0.03 0.00 68 1015.6
20260502115521 17 0 3.2 14.5 0.00 0.03 0.00 66 1015.7
20260502115021 17 147 6.4 14.5 0.00 0.03 0.00 67 1015.8
20260502114541 17 71 3.2 12.9 0.00 0.03 0.00 69 1015.9
20260502114026 16 53 3.2 12.9 0.00 0.03 0.00 69 1015.8
20260502113522 16 2 3.2 9.7 0.00 0.03 0.00 70 1015.9
20260502113042 16 143 0.0 6.4 0.00 0.03 0.00 69 1016.0
20260502112521 16 143 3.2 12.9 0.00 0.03 0.00 68 1016.0
20260502112026 16 142 4.8 16.1 0.00 0.03 0.00 68 1016.1
20260502111535 16 148 6.4 16.1 0.00 0.03 0.00 69 1016.1
20260502111022 16 121 6.4 12.9 0.00 0.03 0.00 72 1016.1
20260502110520 16 121 3.2 11.3 0.00 0.03 0.00 67 1016.0
20260502110038 16 122 4.8 11.3 0.00 0.03 0.00 72 1016.0
20260502105521 16 120 3.2 11.3 0.00 0.03 0.00 70 1016.0
20260502105021 16 120 3.2 11.3 0.00 0.03 0.00 72 1016.1
20260502104543 16 124 1.6 14.5 0.00 0.03 0.00 73 1016.2
20260502104021 16 122 4.8 14.5 0.00 0.03 0.00 73 1016.3
20260502103521 15 122 6.4 14.5 0.00 0.03 0.00 75 1016.2
20260502103042 15 129 4.8 8.0 0.00 0.03 0.00 79 1016.2
20260502102521 15 124 1.6 11.3 0.00 0.03 0.00 77 1016.3
20260502102022 15 126 1.6 11.3 0.00 0.03 0.00 78 1016.3
20260502101541 15 134 1.6 4.8 0.00 0.03 0.00 79 1016.4
20260502101021 14 118 1.6 6.4 0.00 0.03 0.00 80 1016.3
20260502100522 14 118 1.6 6.4 0.00 0.03 0.00 78 1016.4
20260502091024 12 274 3.2 9.7 0.00 0.03 0.00 89 1017.2
20260502090521 12 0 1.6 6.4 0.00 0.03 0.00 91 1017.1
20260502071535 7 115 3.2 11.3 0.00 0.03 0.00 98 1017.6
20260502071022 7 0 1.6 11.3 0.00 0.03 0.00 97 1017.5
20260502070522 7 110 3.2 11.3 0.00 0.03 0.00 97 1017.5
20260502070101 7 111 3.2 6.4 0.00 0.03 0.00 97 1017.5
20260502065522 6 110 3.2 8.0 0.00 0.03 0.00 97 1017.4
20260502065024 6 110 3.2 8.0 0.00 0.03 0.00 97 1017.4
20260502064546 6 110 4.8 8.0 0.00 0.03 0.00 97 1017.3
20260502064021 6 109 3.2 6.4 0.00 0.03 0.00 97 1017.4
20260502063521 6 110 1.6 6.4 0.00 0.03 0.00 96 1017.3
20260502063041 6 109 3.2 6.4 0.00 0.03 0.00 96 1017.3
20260502062521 6 126 1.6 6.4 0.00 0.03 0.00 97 1017.3
20260502062021 6 156 3.2 6.4 0.00 0.03 0.00 96 1017.3
20260502061540 6 194 0.0 4.8 0.00 0.03 0.00 96 1017.3
20260502061022 6 203 1.6 4.8 0.00 0.03 0.00 96 1017.3
20260502060520 6 116 1.6 4.8 0.00 0.03 0.00 96 1017.4
20260502060042 6 116 1.6 4.8 0.00 0.03 0.00 96 1017.4
20260502055522 5 116 0.0 4.8 0.00 0.03 0.00 96 1017.4
20260502055022 5 112 0.0 4.8 0.00 0.03 0.00 96 1017.3
20260502054544 5 108 1.6 4.8 0.00 0.03 0.00 96 1017.4
20260502054023 5 0 1.6 4.8 0.00 0.03 0.00 96 1017.3
20260502053521 5 83 0.0 4.8 0.00 0.03 0.00 96 1017.4
20260502053044 5 109 0.0 4.8 0.00 0.03 0.00 95 1017.2
20260502052524 5 0 0.0 3.2 0.00 0.03 0.00 95 1017.3
20260502052025 5 110 0.0 3.2 0.00 0.03 0.00 95 1017.2
20260502051547 5 106 0.0 3.2 0.00 0.03 0.00 95 1017.2
20260502051021 5 0 0.0 6.4 0.00 0.03 0.00 95 1017.2
20260502050521 5 117 1.6 6.4 0.00 0.03 0.00 95 1017.3
20260502050042 5 159 3.2 6.4 0.00 0.03 0.00 95 1017.2
20260502045522 5 279 0.0 3.2 0.00 0.03 0.00 95 1017.2
20260502045020 5 0 1.6 3.2 0.00 0.03 0.00 95 1017.3
20260502044535 5 279 0.0 4.8 0.00 0.03 0.00 95 1017.2
20260502044022 5 279 0.0 4.8 0.00 0.03 0.00 95 1017.1
20260502043521 5 279 0.0 6.4 0.00 0.03 0.00 95 1017.1
20260502043046 5 279 3.2 6.4 0.00 0.03 0.00 95 1017.2
20260502042524 6 270 0.0 3.2 0.00 0.03 0.00 95 1017.1
20260502042023 6 0 0.0 4.8 0.00 0.03 0.00 95 1017.2
20260502041608 6 0 0.0 4.8 0.00 0.03 0.00 94 1017.1
20260502041021 6 278 1.6 4.8 0.00 0.03 0.00 95 1017.2
20260502040522 6 0 0.0 4.8 0.00 0.03 0.00 95 1017.2
20260502040054 6 278 1.6 4.8 0.00 0.03 0.00 95 1017.3
20260502035522 6 0 1.6 4.8 0.00 0.03 0.00 94 1017.4
20260502035021 6 278 1.6 4.8 0.00 0.03 0.00 94 1017.4
20260502034545 6 0 0.0 4.8 0.00 0.03 0.00 94 1017.4
20260502034022 6 278 0.0 4.8 0.00 0.03 0.00 95 1017.4
20260502033523 6 278 1.6 4.8 0.00 0.03 0.00 95 1017.4
20260502033040 6 278 1.6 4.8 0.00 0.03 0.00 95 1017.3
20260502032523 6 0 0.0 3.2 0.00 0.03 0.00 95 1017.4
20260502032023 6 278 0.0 3.2 0.00 0.03 0.00 95 1017.5
20260502031543 6 278 0.0 3.2 0.00 0.03 0.00 95 1017.4
20260502031022 6 278 0.0 3.2 0.00 0.03 0.00 95 1017.4
20260502030523 6 0 0.0 3.2 0.00 0.03 0.00 94 1017.5
20260502030059 7 0 0.0 3.2 0.00 0.03 0.00 94 1017.5
20260502025523 7 278 0.0 4.8 0.00 0.03 0.00 95 1017.5
20260502025021 7 278 1.6 4.8 0.00 0.03 0.00 95 1017.6
20260502024552 7 278 1.6 4.8 0.00 0.03 0.00 95 1017.5
20260502024021 7 278 0.0 3.2 0.00 0.03 0.00 94 1017.6
20260502023522 7 0 0.0 1.6 0.00 0.03 0.00 94 1017.6
20260502023055 7 0 0.0 3.2 0.00 0.03 0.00 94 1017.6
20260502022524 7 0 0.0 3.2 0.00 0.03 0.00 94 1017.6